User: anonymous   Login
Location: Suzhou
(31.3110°N, 120.6180°E)
Time: 03:10:26
(UTC+08:00)
Language:

NOAA 15 - Orbit

View from above orbital plane
View from above orbital plane
View from above satellite
View from above satellite

Ground track
Ground track

The orbit data is extracted from the following two-line orbital elements,

1 25338U 98030A   24147.56438440  .00000355  00000-0  16503-3 0  9994
2 25338  98.5696 175.1417 0010871  34.4282 325.7601 14.26586275354352
Epoch (UTC): 26 May 2024 13:32:42
Eccentricity: 0.0010871
inclination: 98.5696°
perigee height: 795 km
apogee height: 811 km
right ascension of ascending node: 175.1417°
argument of perigee: 34.4282°
revolutions per day: 14.26586275
mean anomaly at epoch: 325.7601°
orbit number at epoch: 35435

The dashed part of the orbit path shows where the satellite is in the earth's shadow,  

DLR